Content
SEND FEEDBACK

Daily
Averages
Monthly
Summary
United States of America

WATERLOO, NEW YORK


Home > North America > United States > New York
Elevation: 450 feet     Latitude: 42 54N     Longitude: 076 52W

WEATHER
 
SELECT A DAY
Number of Records: 186,739;   Date Range: 12/10/97 - 9/18/14
 
SHARE

PRINT THIS DATA

[ ← Previous Day ]
WEATHER ALMANAC - FEBRUARY 13, 2013
[ Next Day → ]
[ °C ]   °F
Weather ElementAverageHighLow
Temperature31.7 °F37 °F (2:53 pm)27 °F (11:53 pm)
Dewpoint20.7 °F23 °F (3:53 pm)19 °F (11:53 am)
Humidity64.3 %81 % (11:53 pm)54 % (2:53 pm)
Barometer29.82 in29.93 in (1:53 am)29.73 in (3:53 pm)
Wind Speed3.5 mph8.1 mph (2:53 pm)
Weather ElementAverage
Visibility9.9 mi
Wind DirectionESE (112.3 °)

Weather ElementTotal
Precipitation---
Heating Degree Days33 (Base 65)
Averaged from 26 records on February 13, 2013
WEATHER CONDITIONS BREAKOUT
WIND DIRECTION BREAKOUT
WEATHER BY HOUR - FEBRUARY 13, 2013
[ °C ]   °F
Local TimeTemperatureDewpointHumidityBarometerVisibilityWind DirectionWind SpeedGust SpeedPrecipitationEventsConditions
1:05 AM30.2 °F19.4 °F64 %29.89 in10.0 miSW (230°)6.9 mphOvercast
1:53 AM30.0 °F19.9 °F66 %29.93 in10.0 miSW (230°)5.8 mphOvercast
2:53 AM30.0 °F21.0 °F69 %29.91 in10.0 miSW (220°)6.9 mphOvercast
3:53 AM30.9 °F19.9 °F64 %29.90 in10.0 miSSW (200°)5.8 mphOvercast
4:53 AM30.0 °F21.0 °F69 %29.89 in10.0 miSouth (190°)3.5 mphOvercast
5:53 AM30.9 °F19.9 °F64 %29.88 in10.0 miVariable3.5 mphOvercast
6:53 AM30.9 °F21.0 °F67 %29.88 in10.0 miWSW (240°)6.9 mphOvercast
7:53 AM30.9 °F21.0 °F67 %29.88 in10.0 miSW (220°)3.5 mphOvercast
8:53 AM32.0 °F19.9 °F61 %29.86 in10.0 miCalmOvercast
9:53 AM32.0 °F19.9 °F61 %29.86 in10.0 miWSW (250°)5.8 mphOvercast
10:06 AM32.0 °F19.4 °F60 %29.82 in10.0 miSW (220°)5.8 mphOvercast
10:53 AM32.0 °F19.9 °F61 %29.84 in10.0 miSW (230°)3.5 mphOvercast
11:10 AM33.8 °F19.4 °F56 %29.81 in10.0 miWSW (240°)4.6 mphOvercast
11:53 AM33.1 °F19.0 °F56 %29.81 in10.0 miCalmMostly Cloudy
12:53 PM34.0 °F19.9 °F56 %29.80 in10.0 miCalmClear
1:53 PM36.0 °F21.9 °F57 %29.77 in10.0 miVariable5.8 mphClear
2:53 PM37.0 °F21.9 °F54 %29.74 in10.0 miEast (100°)8.1 mphClear
3:53 PM37.0 °F23.0 °F57 %29.73 in10.0 miVariable4.6 mphClear
4:53 PM35.1 °F21.9 °F59 %29.73 in10.0 miNNE (30°)4.6 mphClear
5:53 PM32.0 °F21.9 °F66 %29.73 in10.0 miCalmClear
6:53 PM30.0 °F21.9 °F72 %29.75 in10.0 miCalmClear
7:53 PM30.0 °F21.0 °F69 %29.76 in10.0 miCalmClear
8:53 PM30.0 °F21.9 °F72 %29.77 in9.0 miCalmClear
9:53 PM28.9 °F21.0 °F72 %29.78 in10.0 miCalmClear
10:53 PM28.0 °F19.9 °F72 %29.78 in10.0 miCalmClear
11:53 PM27.0 °F21.9 °F81 %29.80 in8.0 miNW (320°)4.6 mphClear
Hourly data recorded from KPEO, located miles away from Waterloo, New York







STORIES FROM OUR PARTNERS